Tracking 35280 objects as of 7-Sep-2026
HD Live streaming from Space Station
objects crossing your sky now

SL-4 R/B


SL-4 R/B is no longer on orbit


NORAD ID: 13293
Int'l Code: 1982-063B
Launch date: June 24, 1982
Source: Commonwealth of Independent States (former USSR) (CIS)
Launch site: TYURATAM MISSILE AND SPACE COMPLEX (TTMTR)
Decay date: 1982-06-26

Note: This is a ROCKET BODY
Your satellite tracking list
Your tracking list is empty




NASA's NSSDC Master Catalog

Two Line Element Set (TLE):
1 13293U 82063  B 82177.27364504  .08317220 +55156-4 +64195-3 0  9990
2 13293 051.6071 160.9677 0008321 127.4610 234.6839 16.39370582000257
Source of the keplerian elements: AFSPC